Hourly Data Report for June 27, 2018

TORONTO CITY
ONTARIO
Current Station Operator: ECCC - MSC

43°40'00.000" N
79°24'00.000" W
112.50 m
6158355
71508
XTO

Download Data

Hourly Data (June 2018)
Hourly Data Report for June 27, 2018
TIME
LST
Temp Definition
°C
Dew Point Definition
°C
Rel Hum Definition
%
Precip. Amount Definition
mm

Wind Dir Definition
10's deg

Wind Spd Definition
km/h
Visibility Definition
km
Stn Press Definition
kPa
Hmdx Definition


Wind Chill Definition


Weather Definition


00:00 18.6 10.3 59 0.0 LegendMM LegendMM   100.12     LegendNANA
01:00 18.5 11.5 64 0.0 LegendMM LegendMM   100.04     LegendNANA
02:00 18.7 12.1 66 0.0 LegendMM LegendMM   99.99     LegendNANA
03:00 19.0 12.6 66 0.0 LegendMM LegendMM   99.92     LegendNANA
04:00 17.5 13.9 80 0.7 LegendMM LegendMM   99.93     LegendNANA
05:00 17.3 15.5 89 5.8 LegendMM LegendMM   99.90     LegendNANA
06:00 17.5 15.7 90 0.4 LegendMM LegendMM   99.82     LegendNANA
07:00 18.4 16.6 89 0.0 LegendMM LegendMM   99.81     LegendNANA
08:00 18.6 16.8 89 0.0 LegendMM LegendMM   99.80     LegendNANA
09:00 18.8 16.8 89 0.0 LegendMM LegendMM   99.75     LegendNANA
10:00 18.7 16.6 88 0.0 LegendMM LegendMM   99.69     LegendNANA
11:00 18.8 16.5 87 0.0 LegendMM LegendMM   99.66     LegendNANA
12:00 18.8 16.6 87 0.0 LegendMM LegendMM   99.62     LegendNANA
13:00 19.3 16.6 84 0.0 LegendMM LegendMM   99.57     LegendNANA
14:00 19.8 17.1 84 0.0 LegendMM LegendMM   99.52     LegendNANA
15:00 19.5 17.1 86 0.0 LegendMM LegendMM   99.47     LegendNANA
16:00 19.6 17.0 85 0.0 LegendMM LegendMM   99.41     LegendNANA
17:00 19.7 16.9 84 0.0 LegendMM LegendMM   99.37     LegendNANA
18:00 19.7 17.2 85 0.0 LegendMM LegendMM   99.35     LegendNANA
19:00 20.0 17.3 85 0.0 LegendMM LegendMM   99.34 25   LegendNANA
20:00 20.0 17.3 84 0.0 LegendMM LegendMM   99.32 25   LegendNANA
21:00 19.8 17.2 85 0.0 LegendMM LegendMM   99.35     LegendNANA
22:00 19.4 17.0 86 0.0 LegendMM LegendMM   99.37     LegendNANA
23:00 19.6 17.3 87 0.0 LegendMM LegendMM   99.35     LegendNANA

Notes on Data Quality.

Legend

  • E = Estimated
  • M = Missing
  • NA = Not Available*
  • [empty] = Indicates an unobserved value
Date modified: